Date String (YYYY-MM-DD hh:mm:ss) UTC,Instrument flags,Ambient pressure (hPa),Sample flow (lpm),Bypass flow (lpm),Sample temperature (°C),Ambient temperature (°C),ASC tube jacket temperature (°C),LED temperature (°C),Box temperature (°C),Sample RH (%),Mass concentration (μg/m³),Mass concentration (μg/m³)
DateTimeUTC,F1_M11,P_M11,Q1_M11,Q2_M11,T1_M11,T2_M11,T3_M11,T4_M11,T5_M11,U1_M11,X0_M11,X2_M11
2021-08-13 19:00:00,,0835.1,5.01,0.00,29.6,26.5,00.0,38.4,30.8,34.1,0028.86,0011.27
2021-08-13 19:01:00,,0835.0,5.00,0.00,29.4,25.8,00.0,38.4,30.6,34.7,0031.11,0011.39
2021-08-13 19:02:00,,0835.1,5.00,0.00,29.4,26.0,00.0,38.4,30.6,34.5,0032.79,0011.48
2021-08-13 19:03:00,,0835.0,5.00,0.00,29.4,26.4,00.0,38.4,30.8,34.1,0033.33,0011.48
2021-08-13 19:04:00,,0835.1,5.01,0.00,29.4,26.9,00.0,38.3,30.9,33.7,0034.15,0011.59
2021-08-13 19:05:00,,0835.0,4.98,0.00,29.4,27.3,00.0,38.3,31.0,33.3,0034.83,0011.64
2021-08-13 19:06:00,,0835.0,5.01,0.00,29.4,27.6,00.0,38.3,31.1,32.9,0035.87,0011.71
2021-08-13 19:07:00,,0835.1,4.98,0.00,29.5,27.9,00.0,38.4,31.2,32.9,0035.28,0011.75
2021-08-13 19:08:00,,0835.0,5.01,0.00,29.5,28.2,00.0,38.4,31.3,32.6,0034.76,0011.80
2021-08-13 19:09:00,,0835.0,5.00,0.00,29.6,28.3,00.0,38.4,31.3,32.7,0034.05,0011.83
2021-08-13 19:10:00,,0835.0,5.01,0.00,29.6,27.6,00.0,38.4,31.1,32.5,0033.65,0011.81
2021-08-13 19:11:00,,0835.0,5.01,0.00,29.5,26.2,00.0,38.4,30.7,32.7,0033.37,0011.82
2021-08-13 19:12:00,,0835.0,4.99,0.00,29.4,25.9,00.0,38.4,30.6,33.0,0032.42,0011.84
2021-08-13 19:13:00,,0835.0,5.02,0.00,29.3,26.2,00.0,38.4,30.7,32.9,0030.81,0011.78
2021-08-13 19:14:00,,0835.0,4.99,0.00,29.3,26.6,00.0,38.3,30.8,33.0,0030.29,0011.75
2021-08-13 19:15:00,,0835.0,5.01,0.00,29.3,27.0,00.0,38.3,30.9,33.0,0030.05,0011.72
2021-08-13 19:16:00,,0835.0,4.99,0.00,29.3,27.4,00.0,38.3,31.0,33.2,0028.67,0011.72
2021-08-13 19:17:00,,0835.0,5.01,0.00,29.3,27.7,00.0,38.3,31.1,33.3,0027.55,0011.68
2021-08-13 19:18:00,,0835.0,4.99,0.00,29.4,28.0,00.0,38.3,31.2,33.7,0028.91,0011.67
2021-08-13 19:19:00,,0835.0,5.01,0.00,29.4,28.2,00.0,38.3,31.3,33.2,0029.61,0011.65
2021-08-13 19:20:00,,0834.9,4.99,0.00,29.5,28.4,00.0,38.4,31.3,32.8,0031.02,0011.65
2021-08-13 19:21:00,,0835.0,5.01,0.00,29.5,27.9,00.0,38.4,31.2,32.8,0031.73,0011.68
2021-08-13 19:22:00,,0834.9,4.99,0.00,29.4,26.4,00.0,38.3,30.7,33.0,0032.04,0011.72
2021-08-13 19:23:00,,0834.9,5.00,0.00,29.3,25.9,00.0,38.3,30.6,32.9,0032.38,0011.69
2021-08-13 19:24:00,,0835.0,5.01,0.00,29.2,26.1,00.0,38.3,30.7,33.1,0032.87,0011.68
2021-08-13 19:25:00,,0835.0,4.99,0.00,29.2,26.5,00.0,38.3,30.8,34.0,0031.92,0011.67
2021-08-13 19:26:00,,0834.9,5.00,0.00,29.2,26.9,00.0,38.3,30.9,34.3,0030.38,0011.65
2021-08-13 19:27:00,,0835.0,4.99,0.00,29.2,27.3,00.0,38.3,31.0,34.8,0030.60,0011.61
2021-08-13 19:28:00,,0835.0,4.99,0.00,29.4,27.7,00.0,38.3,31.1,35.3,0031.95,0011.64
2021-08-13 19:29:00,,0834.9,5.01,0.00,29.6,28.0,00.0,38.3,31.4,34.1,0031.24,0011.62
2021-08-13 19:30:00,,0834.9,4.99,0.00,29.8,28.2,00.0,38.3,31.4,34.0,0030.51,0011.63
2021-08-13 19:31:00,,0834.9,5.00,0.00,29.9,28.4,00.0,38.4,31.5,32.8,0029.30,0011.53
2021-08-13 19:32:00,,0834.9,5.01,0.00,30.0,28.2,00.0,38.4,31.4,32.3,0029.18,0011.41
2021-08-13 19:33:00,,0834.9,5.00,0.00,30.0,26.7,00.0,38.4,30.9,32.9,0029.49,0011.31
2021-08-13 19:34:00,,0834.8,5.00,0.00,29.8,25.9,00.0,38.4,30.6,32.5,0028.98,0011.30
2021-08-13 19:35:00,,0834.8,5.01,0.00,29.8,26.0,00.0,38.5,30.7,33.0,0029.30,0011.29
2021-08-13 19:36:00,,0834.8,5.00,0.00,29.7,26.4,00.0,38.5,30.8,32.8,0029.33,0011.24
2021-08-13 19:37:00,,0834.8,5.00,0.00,29.7,26.8,00.0,38.5,30.9,32.9,0029.82,0011.25
2021-08-13 19:38:00,,0834.9,4.99,0.00,29.7,27.2,00.0,38.5,31.1,32.9,0030.08,0011.25
2021-08-13 19:39:00,,0834.8,5.01,0.00,29.7,27.6,00.0,38.5,31.2,33.0,0029.63,0011.19
2021-08-13 19:40:00,,0834.9,4.99,0.00,29.8,27.9,00.0,38.5,31.2,33.6,0029.20,0011.13
2021-08-13 19:41:00,,0834.9,5.01,0.00,29.8,28.2,00.0,38.5,31.3,33.1,0029.86,0011.10
2021-08-13 19:42:00,,0834.9,4.98,0.00,29.8,28.4,00.0,38.6,31.4,33.8,0031.55,0011.07
2021-08-13 19:43:00,,0834.9,5.01,0.00,29.9,28.3,00.0,38.6,31.4,34.4,0031.43,0011.10
2021-08-13 19:44:00,,0835.0,5.00,0.00,29.8,26.9,00.0,38.6,31.0,34.0,0031.46,0011.07
2021-08-13 19:45:00,,0834.9,5.00,0.00,29.6,25.9,00.0,38.6,30.7,33.7,0032.98,0010.99
2021-08-13 19:46:00,,0834.9,4.99,0.00,29.6,26.0,00.0,38.6,30.7,33.8,0033.03,0011.02
2021-08-13 19:47:00,,0834.8,5.01,0.00,29.5,26.4,00.0,38.5,30.8,34.4,0033.32,0011.09
2021-08-13 19:48:00,,0834.8,5.00,0.00,29.5,26.8,00.0,38.5,30.9,34.5,0033.64,0011.02
2021-08-13 19:49:00,,0834.8,5.00,0.00,29.5,27.2,00.0,38.5,31.0,34.5,0034.59,0011.01
2021-08-13 19:50:00,,0834.9,5.01,0.00,29.5,27.6,00.0,38.5,31.1,34.5,0035.18,0010.99
2021-08-13 19:51:00,,0834.9,4.99,0.00,29.6,27.9,00.0,38.5,31.2,34.0,0034.90,0010.94
2021-08-13 19:52:00,,0834.9,5.01,0.00,29.6,28.1,00.0,38.5,31.3,33.9,0034.70,0010.96
2021-08-13 19:53:00,,0834.8,5.00,0.00,29.6,28.3,00.0,38.5,31.4,33.3,0032.85,0010.97
2021-08-13 19:54:00,,0834.8,4.98,0.00,29.7,28.4,00.0,38.5,31.4,33.2,0035.62,0010.99
2021-08-13 19:55:00,,0834.8,5.01,0.00,29.7,27.3,00.0,38.5,31.0,33.3,0036.10,0010.97
2021-08-13 19:56:00,,0834.8,5.01,0.00,29.5,26.0,00.0,38.5,30.7,34.3,0035.01,0010.96
2021-08-13 19:57:00,,0834.7,4.99,0.00,29.4,25.9,00.0,38.5,30.6,34.2,0034.76,0010.94
2021-08-13 19:58:00,,0834.6,5.01,0.00,29.3,26.2,00.0,38.5,30.7,34.1,0034.05,0010.92
2021-08-13 19:59:00,,0834.7,4.99,0.00,29.3,26.7,00.0,38.4,30.8,33.9,0033.81,0010.90
